Верхнеберёзовский

Казахстан     50°16′31″N   82°12′55″E
темп.,
°C
ветер,
м/с
пор.,
м/с
влажн.,
%
обл.,
%
осадки,
мм/ч
давл.,
гПа
погр.,
м
11 мая, вт
вт1100:00+11ссз118326 0.3 100810
03:00+10сз1193100 0.1 100815
06:00+9зсз238480 0.1 1010111
09:00+12сз4559100 0.0 1011739
12:00+15ссз6742100 0.0 10121490
15:00+16ссз6734100 0.0 10121930
18:00+15с57395 0.0 10132169
21:00+10ссз22485 0.0 101517
12 мая, ср
ср1200:00+9сз225023 0.0 101510
03:00+7с225646 0.0 101515
06:00+8ссз236988 0.1 101797
09:00+13зсз565618 0.1 10171033
12:00+16ссз794630 0.8 10162027
15:00+16ссз6104885 0.2 10161727
18:00+14с5954100 0.3 10171385
21:00+11сз2471100 0.1 1019121
13 мая, чт
чт1300:00+9зсз23795 0.2 101940
03:00+8ссз118250 0.0 101911
06:00+8в11795 0.0 101915
09:00+14зюз225596 0.0 1018670
12:00+17з3439100 0.0 10162064
15:00+17зсз6545100 0.1 10151929
18:00+12сз2476100 0.2 1016258
21:00+10юз0183100 0.1 101711
14 мая, пт
пт1400:00+9сз229187 0.2 101716
03:00+8сз2290100 0.0 101727
06:00+8сз248954 0.0 1018139
09:00+12с797272 0.2 10191028
12:00+16ссз894218 0.2 10192054
15:00+17ссв811380 0.0 10202175
18:00+17с59405 0.0 10202078
21:00+12с22535 0.0 102213
15 мая, сб
сб1500:00+9с33664 0.0 102330
03:00+7с22735 0.0 102418
06:00+8ссв12725 0.0 102557
09:00+15с354976 0.0 1024686
12:00+19ссз56382 0.0 10221367
15:00+21ссз56384 0.0 10211554
18:00+19ссз57464 0.0 1020984
21:00+13сз33644 0.0 102127